Flag for Kazakhstan Weather past 2 weeks in Shymkent, Kazakhstan

Now
39 °F

Overcast.


Feels Like: 35 °F
Forecast: 24 / 32 °F
Wind: 6 mph from South

Location: Shymkent Airport

Current Time: Jan 31, 2015 at 7:10:30 AM

Latest Report: Jan 31, 2015 at 6:30 AM


Visibility: N/A

Pressure: 30.04 "Hg

Humidity: 81%

Dew point: 34 °F

Location of ShymkentLocation

Historic Weather in Shymkent — Graph

°F

Shymkent temperature yesterday

Maximum temperature yesterday: 41 °F (at 3:00 PM)
Minimum temperature yesterday: 12 °F (at 12:30 AM)
Average temperature yesterday: 30 °F

Past Weeks' High & Low Weather Summary

 TemperatureHumidityPressure
High57 °F (Jan 17, 3:30 PM)100% (Jan 18, 5:30 AM)30.63 "Hg (Jan 18, 5:30 AM)
Low3 °F (Jan 25, 9:30 PM)34% (Jan 16, 1:30 PM)30.01 "Hg (Jan 17, 5:00 AM)
Average25 °F85%30.29 "Hg
* Reported Jan 16 5:00 AM — Jan 31 5:30 AM, Shymkent, Weather by CustomWeather, © 2014

Note: Actual official high and low records may vary slightly from our data, if they occured in-between our weather recording intervals... More about our weather records

Advertising

Shymkent weather history for previous 24 hours

 ConditionsComfort  
Time TempWeatherWind HumidityBarometerVisibility
5:30 AM
Jan 31
37 °FOvercast.8 mph87%30.04 "HgN/A
5:00 AM39 °FOvercast.6 mph81%30.04 "HgN/A
4:30 AM41 °FOvercast.8 mph76%30.04 "HgN/A
4:00 AM39 °FOvercast.8 mph81%30.04 "HgN/A
3:30 AM39 °FOvercast.8 mph81%30.04 "HgN/A
3:00 AM39 °FOvercast.8 mph81%30.04 "HgN/A
2:30 AM39 °FOvercast.8 mph81%30.04 "HgN/A
2:00 AM39 °FOvercast.8 mph81%30.04 "HgN/A
1:30 AM39 °FOvercast.8 mph81%30.04 "HgN/A
1:00 AM39 °FOvercast.8 mph81%30.04 "HgN/A
12:30 AM39 °FOvercast.13 mph81%30.04 "HgN/A
12:00 AM39 °FOvercast.6 mph81%30.04 "HgN/A
11:30 PM
Jan 30
39 °FOvercast.6 mph81%30.04 "HgN/A
11:00 PM39 °FOvercast.6 mph81%30.04 "HgN/A
10:30 PM39 °FOvercast.6 mph81%30.04 "Hg5 mi
10:00 PM39 °FOvercast.6 mph81%30.04 "Hg5 mi
9:30 PM39 °FSprinkles. Fog.6 mph75%30.04 "Hg3 mi
9:00 PM37 °FSprinkles. Fog.6 mph81%30.04 "Hg3 mi
8:30 PM36 °FFog.6 mph87%30.07 "Hg3 mi
8:00 PM36 °FFog.3 mph87%30.07 "Hg3 mi
7:30 PM37 °FMostly cloudy.3 mph81%30.04 "Hg4 mi
7:00 PM39 °FOvercast.3 mph75%30.04 "Hg4 mi
6:30 PM39 °FOvercast.1 mph75%30.04 "Hg4 mi
6:00 PM39 °FOvercast.6 mph75%30.04 "Hg4 mi
5:30 PM39 °FOvercast.3 mph75%30.04 "Hg4 mi
5:00 PM39 °FOvercast.8 mph75%30.04 "Hg4 mi
4:30 PM41 °FOvercast.6 mph70%30.04 "Hg4 mi
4:00 PM41 °FOvercast.6 mph70%30.07 "Hg4 mi
3:30 PM41 °FOvercast.6 mph70%30.07 "HgN/A
3:00 PM41 °FMore clouds than sun.6 mph66%30.07 "Hg5 mi
2:30 PM39 °FMore clouds than sun.3 mph70%30.07 "Hg5 mi
2:00 PM39 °FSprinkles. Overcast.3 mph75%30.07 "Hg4 mi
1:30 PM36 °FSprinkles. Overcast.1 mph81%30.09 "Hg5 mi
1:00 PM36 °FSprinkles. Overcast.1 mph70%30.09 "HgN/A
12:30 PM37 °FMostly cloudy.3 mph60%30.09 "HgN/A
12:00 PM37 °FMostly cloudy.1 mph60%30.09 "HgN/A
11:30 AM36 °FOvercast.3 mph65%30.07 "Hg4 mi
11:00 AM32 °FOvercast.3 mph75%30.07 "Hg4 mi
10:30 AM32 °FOvercast.8 mph69%30.07 "Hg4 mi
10:00 AM28 °FOvercast.6 mph74%30.07 "Hg4 mi
9:30 AM25 °FIce fog.6 mph80%30.07 "Hg3 mi
9:00 AM21 °FIce fog.6 mph86%30.07 "Hg3 mi
8:30 AM19 °FPassing clouds.3 mph79%30.07 "Hg4 mi
8:00 AM21 °FPassing clouds.1 mph80%30.07 "Hg4 mi
7:30 AM23 °FPassing clouds.1 mph74%30.07 "Hg4 mi
7:00 AM23 °FPassing clouds.3 mph74%30.07 "Hg4 mi
Weather by CustomWeather, © 2014

See weather overviewHow to use our weather pages